Regional Weather Roundup
Issued by NWS

Home | Current Version | Previous Version | Graphics & Text | Print | Product List | Glossary On
Versions: 1 2 3 4 5 6 7 8 9 10 11 12 13 14 15 16 17 18 19 20 21 22 23 24 25 26 27 28 29 30 31 32 33 34 35 36 37 38 39 40 41 42 43 44 45 46 47 48 49 50
000
ASUS43 KOAX 181210
RWRNE

WEATHER ROUNDUP FOR NEBRASKA
NATIONAL WEATHER SERVICE OMAHA NE
700 AM CDT FRI AUG 18 2017

NOTES: SATELLITE DATA IS BEING USED TO AUGMENT CLOUD COVER ABOVE
       12000 FEET.
       "FAIR" INDICATES FEW OR NO CLOUDS BELOW 12,000 FEET WITH NO
       SIGNIFICANT WEATHER AND/OR OBSTRUCTIONS TO VISIBILITY.


NEZ001>004-019>022-054>056-181300-
NEBRASKA PANHANDLE

CITY           SKY/WX    TMP DP  RH WIND       PRES   REMARKS
SCOTTSBLUFF    CLEAR     52  49  89 NW8       30.12R
6HR MIN TEMP:  52; 6HR MAX TEMP:  59;

ALLIANCE       CLEAR     47  46  97 MISG      30.09R
6HR MIN TEMP:  46; 6HR MAX TEMP:  54;

CHADRON        CLEAR     51  47  86 SW5       30.06S
6HR MIN TEMP:  50; 6HR MAX TEMP:  56;

GORDON         FAIR      50  47  88 CALM      30.05R
6HR MIN TEMP:  49; 6HR MAX TEMP:  54;

KIMBALL        CLEAR     52  48  87 NW8       30.16R
SIDNEY         CLEAR     52  48  86 NW10      30.12R
6HR MIN TEMP:  51; 6HR MAX TEMP:  57;

$$

NEZ057>060-069>072-079>082-181300-
SOUTHWEST NEBRASKA

CITY           SKY/WX    TMP DP  RH WIND       PRES   REMARKS
NORTH PLATTE   CLEAR     55  53  93 NW3       30.03R
6HR MIN TEMP:  54; 6HR MAX TEMP:  67; 6HR PCP: TRACE;

IMPERIAL       CLEAR     54  52  93 CALM      30.04R
6HR MIN TEMP:  54; 6HR MAX TEMP:  65;

LEXINGTON      CLEAR     60  56  87 S7        29.99S
MCCOOK         CLEAR     59  57  93 CALM      30.02S
6HR MIN TEMP:  59; 6HR MAX TEMP:  69;

OGALLALA       CLEAR     56  55  94 W3        30.05R
$$

NEZ005>010-023>029-035>040-094-181300-
NORTH CENTRAL NEBRASKA

CITY           SKY/WX    TMP DP  RH WIND       PRES   REMARKS
VALENTINE      CLEAR     57  50  77 SW9       29.98R
6HR MIN TEMP:  57; 6HR MAX TEMP:  63;

AINSWORTH      CLEAR     58  56  94 W7        29.98R
BROKEN BOW     CLEAR     58  55  90 W6        29.99R
6HR MIN TEMP:  58; 6HR MAX TEMP:  67; 6HR PCP: TRACE;

O`NEILL        CLEAR     58  58  99 CALM      29.95S
ORD            CLEAR     57  54  89 CALM      29.96R
6HR MIN TEMP:  57; 6HR MAX TEMP:  64; 6HR PCP:  0.17;

THEDFORD       CLEAR     56  54  95 W6        30.02S
$$

NEZ041-046>049-061>064-073>077-083>087-181300-
SOUTH CENTRAL NEBRASKA

CITY           SKY/WX    TMP DP  RH WIND       PRES   REMARKS
GRAND ISLAND   CLEAR     60  59  96 SW6       29.96R
6HR MIN TEMP:  59; 6HR MAX TEMP:  76; 6HR PCP: TRACE;

AURORA         CLEAR     59  59  98 NW6       29.95R
HASTINGS       CLEAR     62  58  86 SW3       29.97R
6HR MIN TEMP:  61; 6HR MAX TEMP:  71; 6HR PCP:  0.01;

HEBRON         CLOUDY    66  61  83 CALM      29.91F
HOLDREGE       CLEAR     61  56  84 SW7       29.99S
KEARNEY        CLEAR     63  58  83 SW9       29.98R
YORK           CLEAR     59  59 100 W6        29.94R
$$

NEZ011>018-030>034-042>045-181300-
NORTHEAST NEBRASKA

CITY           SKY/WX    TMP DP  RH WIND       PRES   REMARKS
NORFOLK        CLEAR     61  58  90 NW8       29.93R
6HR MIN TEMP:  60; 6HR MAX TEMP:  68; 6HR PCP:  0.35;

ALBION         CLEAR     59  57  93 NW5       29.96R
BLAIR          HVY RAIN  63  61  93 SW5       29.87S
COLUMBUS       CLEAR     61  60  97 NW5       29.93R
FREMONT        CLEAR     62  62  99 CALM      29.88R
TEKAMAH        CLOUDY    65  58  78 NW5       29.89R
6HR MIN TEMP:  62; 6HR MAX TEMP:  70; 6HR PCP:  0.04;

WAYNE          MOCLDY    61  59  91 NW3       29.93R
$$

NEZ050>053-065>068-078-088>093-181300-
SOUTHEAST NEBRASKA

CITY           SKY/WX    TMP DP  RH WIND       PRES   REMARKS
LINCOLN        CLOUDY    67  60  78 S5        29.90R
6HR MIN TEMP:  64; 6HR MAX TEMP:  71; 6HR PCP: TRACE;

OMAHA EPPLEY   PTCLDY    69  61  75 S6        29.86F
6HR MIN TEMP:  65; 6HR MAX TEMP:  72; 6HR PCP: TRACE;

BEATRICE       PTCLDY    66  61  83 SE6       29.90F
FALLS CITY     CLOUDY    61  59  93 CALM      29.93S
6HR MIN TEMP:  59; 6HR MAX TEMP:  65;

NEBRASKA CITY  CLEAR     64  64 100 S7        29.90F
PLATTSMOUTH    CLEAR     65  61  87 SE7       29.88F
$$

NEZ044-045-051>053-067-181300-
OMAHA AREA

CITY           SKY/WX    TMP DP  RH WIND       PRES   REMARKS
OMAHA EPPLEY   PTCLDY    69  61  75 S6        29.86F
6HR MIN TEMP:  65; 6HR MAX TEMP:  72; 6HR PCP: TRACE;

BLAIR          HVY RAIN  63  61  93 SW5       29.87S
FREMONT        CLEAR     62  62  99 CALM      29.88R
MILLARD        CLEAR     67  63  87 CALM      29.87S
OFFUTT AFB     CLEAR     65  61  86 SE5       29.87F
PLATTSMOUTH    CLEAR     65  61  87 SE7       29.88F
WAHOO          FAIR      61  60  97 CALM      29.89R
$$



USA.gov is the U.S. government's official web portal to all federal, state and local government web resources and services.